Clayton Lake, ME

1:58 PM EDT on July 28, 2017 (GMT -0400)
Clayton Lake

Weather History for K40B - November, 2011

Change the Weather History Date:

Friday, November 11, 2011

  Actual Average Record
Temperature  
Mean Temperature 38 °F -  
Max Temperature 43 °F 34 °F 63 °F (2002)
Min Temperature 31 °F 20 °F 3 °F (2001)
Degree Days  
Heating Degree Days 28    
Moisture  
Dew Point 27 °F    
Average Humidity 79    
Maximum Humidity 88    
Minimum Humidity 70    
Precipitation  
Precipitation 0.26 in - - ()
Sea Level Pressure  
Sea Level Pressure 29.41 in    
Wind  
Wind Speed 4 mph (North)    
Max Wind Speed 7 mph    
Max Gust Speed 22 mph    
Averages and records for this station are not official NWS values.
T = Trace of Precipitation, MM = Missing Value Source: NWS Daily Summary

Daily Weather History Graph

Daily Weather History Graph

Search for Another Location

Airport or City:

Trip Planner

Search our weather history database for the weather conditions in past years. The results will help you decide how hot, cold, wet, or windy it might be!

Date:

Astronomy

Nov. 11, 2011 Rise Set
Actual Time 6:34 AM EST 4:09 PM EST
Civil Twilight 6:01 AM EST 4:41 PM EST
Nautical Twilight 5:25 AM EST 5:18 PM EST
Astronomical Twilight 4:49 AM EST 5:53 PM EST
Moon 4:30 PM EST (11/11) 7:24 AM EST (11/11)
Length of Visible Light 10h 40m
Length of Day
9h 35m
Full, 99% of the Moon is Illuminated
Nov 11
Full
Nov 18
Last Quarter
Nov 25
New
Dec 2
First Quarter
Dec 10
Full

Hourly Weather History & Observations

Time (EST) Temp. Windchill Dew Point Humidity Pressure Visibility Wind Dir Wind Speed Gust Speed Precip Events Conditions
12:25 AM 44.1 °F 41.5 °F - N/A% 29.52 in - Variable 4.6 mph 13.8 mph 0.16 in   Unknown
1:25 AM 42.8 °F 38.6 °F - N/A% 29.49 in - Variable 6.9 mph - 0.07 in   Unknown
2:25 AM 42.3 °F 39.4 °F - N/A% 29.49 in - Variable 4.6 mph - 0.04 in   Unknown
3:25 AM 41.2 °F - - N/A% 29.47 in - Calm Calm - 0.03 in   Unknown
4:25 AM 40.1 °F - - N/A% 29.45 in - Variable 2.3 mph - N/A   Unknown
5:25 AM 39.6 °F 35.4 °F - N/A% 29.43 in - Variable 5.8 mph 12.7 mph N/A   Unknown
6:25 AM 39.4 °F 37.2 °F - N/A% 29.40 in - Variable 3.5 mph - 0.00 in   Unknown
7:25 AM 39.4 °F 37.2 °F - N/A% 29.39 in - Variable 3.5 mph - N/A   Unknown
8:25 AM 39.4 °F 36.1 °F - N/A% 29.37 in - Variable 4.6 mph - 0.00 in   Unknown
9:25 AM 39.4 °F 37.2 °F - N/A% 29.36 in - Variable 3.5 mph 12.7 mph N/A   Unknown
10:25 AM 39.2 °F 37.0 °F - N/A% 29.36 in - Variable 3.5 mph - N/A   Unknown
11:25 AM 38.8 °F 36.5 °F - N/A% 29.34 in - Variable 3.5 mph 11.5 mph N/A   Unknown
12:25 PM 38.5 °F - - N/A% 29.35 in - Calm Calm - 0.03 in   Unknown
1:25 PM 37.9 °F 33.5 °F - N/A% 29.35 in - Variable 5.8 mph - 0.01 in   Unknown
2:25 PM 38.1 °F - - N/A% 29.35 in - Variable 2.3 mph - 0.03 in   Unknown
3:25 PM 37.0 °F 34.5 °F - N/A% 29.36 in - Variable 3.5 mph - N/A   Unknown
4:25 PM 34.3 °F 31.4 °F - N/A% 29.36 in - Variable 3.5 mph - 0.02 in   Unknown
5:25 PM 34.7 °F - - N/A% 29.36 in - Calm Calm - 0.03 in   Unknown
6:25 PM 34.3 °F 30.2 °F 31.1 °F 88% 29.37 in - Variable 4.6 mph 13.8 mph N/A   Unknown
7:25 PM 33.4 °F 29.1 °F 29.1 °F 84% 29.39 in - Variable 4.6 mph 15.0 mph N/A   Unknown
8:25 PM 33.1 °F 27.7 °F 27.5 °F 80% 29.42 in - Variable 5.8 mph 17.3 mph N/A   Unknown
9:25 PM 32.2 °F 26.7 °F 25.9 °F 78% 29.47 in - Variable 5.8 mph 16.1 mph N/A   Unknown
10:25 PM 31.3 °F 25.6 °F 23.4 °F 72% 29.49 in - Variable 5.8 mph 18.4 mph N/A   Unknown
11:25 PM 31.3 °F 25.6 °F 22.6 °F 70% 29.52 in - Variable 5.8 mph 21.9 mph N/A   Unknown